Hourly Weather Roundup
Issued by NWS Central Illinois

Home | Current Version | Previous Version | Text Only | Print | Product List | Glossary On
Versions: 1 2 3 4 5 6 7 8 9 10 11 12 13 14 15 16 17 18 19 20 21 22 23 24 25 26 27 28 29 30 31 32 33 34 35 36 37 38 39 40 41 42 43 44 45 46 47 48 49 50
000
NZUS43 KILX 060110
HWRILX

AREA WEATHER ROUNDUP
NATIONAL WEATHER SERVICE, LINCOLN IL
700 PM CST FRI FEB 05 2016


CITY           SKY/WX    TMP DP  RH WIND       PRES   REMARKS
BLOOMINGTON    PTCLDY    26  23  88 CALM      30.38R
CHAMPAIGN      PTCLDY    28  23  81 CALM      30.37S
DANVILLE       CLOUDY    29  21  71 CALM      30.33F
DECATUR        PTCLDY    28  22  78 CALM      30.38R
EFFINGHAM      CLEAR     29  26  87 CALM      30.40S
FLORA          CLEAR     33  22  64 CALM      30.39R
GALESBURG      MOCLDY    28  23  80 SE5       30.33F WCI  23
JACKSONVILLE   PTCLDY    30  24  79 E3        30.37F
LACON          PTCLDY    26  20  80 CALM      30.38F
LAWRENCEVILLE  CLEAR     29  20  69 NE5       30.38F WCI  24
LITCHFIELD     CLEAR     30  19  64 CALM      30.36F
$$


CITY           SKY/WX    TMP DP  RH WIND       PRES   REMARKS
LINCOLN        CLEAR     28  25  90 CALM      30.39S
MACOMB         PTCLDY    29  25  85 SE3       30.37F
MATTOON        CLEAR     27  22  81 CALM      30.37S
MT CARMEL AP   CLEAR     32  25  74 NE3       30.37F
OLNEY-NOBLE AP CLEAR     30  25  80 CALM      30.40R
PARIS          PTCLDY    29  24  81 CALM      30.38F
PEORIA         CLEAR     27  19  72 E3        30.38F
PONTIAC        PTCLDY    29  26  90 CALM      30.39R
RANTOUL        CLEAR     29  25  84 CALM      30.37R
ROBINSON       CLEAR     29  23  78 N7        30.39F WCI  22
SPRINGFIELD    CLEAR     27  20  75 CALM      30.39R
TAYLORVILLE    CLEAR     28  23  80 CALM      30.38S
$$

...REGIONAL REPORTS...


CITY           SKY/WX    TMP DP  RH WIND       PRES   REMARKS
CHICAGO O`HARE CLOUDY    30  21  69 SW5       30.33F WCI  25
KANKAKEE       CLOUDY    28  23  79 CALM      30.37F
MOLINE         CLOUDY    30  21  69 SE3       30.34F
MOUNT STERLING CLOUDY    28  23  82 CALM      30.35F
MOUNT VERNON   CLEAR     27  16  63 CALM      30.38S
PITTSFIELD     PTCLDY    29  15  55 CALM      30.36F
QUINCY         CLOUDY    31  20  63 CALM      30.35S
ROCKFORD       CLOUDY    29  19  66 SW6       30.36R WCI  23
$$


CITY           SKY/WX    TMP DP  RH WIND       PRES   REMARKS
BURLINGTON     CLOUDY    27  21  78 CALM      30.35R
CEDAR RAPIDS   CLOUDY    28  22  78 SE9       30.30F WCI  19
DES MOINES     FLURRIES  30  23  75 S8        30.30R WCI  22
KIRKSVILLE     MOCLDY    29  20  69 SE7       30.32F WCI  22
OTTUMWA        CLOUDY    30  20  66 SE8       30.31F WCI  22
ST LOUIS       CLOUDY    35  17  47 CALM      30.37S
$$


CITY           SKY/WX    TMP DP  RH WIND       PRES   REMARKS
TERRE HAUTE    CLEAR     27  21  78 NE6       30.38F WCI  20
EVANSVILLE     CLEAR     40  25  55 CALM      30.38F
INDIANAPOLIS   PTCLDY    27  21  78 NW8       30.36S WCI  19
LAFAYETTE      CLOUDY    28  21  75 CALM      30.38F
MADISON        CLOUDY    27  15  61 VRB3      30.30F
MILWAUKEE      CLOUDY    30  14  51 W6        30.32F WCI  24
$$





USA.gov is the U.S. government's official web portal to all federal, state and local government web resources and services.